STARLINK-34780, 65074

Orbit data source: Space-Track

STARLINK-34780, 65074 is a payload satellite owned by SpaceX/Seattle (US) in SSO that was launched on Thu, 31 Jul 2025 UTC via an FALCON 9 launch vehicle from the Air Force Western Test Range (AFWTR). Payload-class satellites include a variety of spacecraft equipped with specific instruments for various scientific and technological missions. These include communications satellites like Starlink; space stations such as the ISS; scientific satellites like the Hubble; Earth observation satellites from companies like Planet Labs, Umbra, and HawkEye 360; GPS; miniature CubeSats for education and research; and military/defense satellites.

Loading next visibility...
Identifier
65074, 2025-165U
Orbit
SSO
Country
Flag of USUS
Related business
Manufacturer
SpaceX/Seattle
Mission
Operational Commercial Communications
Bus & Motor
STARLINK V2MO, Unknown motor
Mass
575 kg wet, ~530 kg dry
Launch date (UTC)
2025-07-31 (4 months ago)
Launch vehicle
FALCON 9
Launch site
Air Force Western Test Range (AFWTR)
Object type
Payload
Rocket body
Debris
Shape & HBR
Box + 2 Pan, 17.7 m
Radar Cross Section
36.964 m², Large (>1 m²)

Expand to show TLE details & history
Last TLE update: 19 hours ago

TLE from 19 hours ago
0 STARLINK-34780
1 65074U 25165U   25342.21013348  .00006075  00000-0  42471-3 0  9998
2 65074  97.6049  57.0275 0001034  96.5432 263.5913 15.05664651 21025
Epoch: 2025-12-08T05:02Z
TLE epoch observation values (Epoch: 2025-12-08T05:02:35.532Z)
Latitude
0.00001°
Longitude
-95.83299°
Altitude
552.611 km
Speed
7.585 km/s
True Right ascension
03h 48m 06s
True Declination
0° 00' 00"
Sunlit
Object was in full shadow at epoch
Visualization orbit readout
Latitude
Unknown
Longitude
Unknown
Altitude
Unknown
Speed
Unknown
Apparent Right ascension
Unknown
Apparent Declination
Unknown
Sunlit
N/A
Visualization observer readout
Local Sidereal Time
21:56:20
Azimuth
Unknown
Elevation
Unknown
Doppler factor
Unknown
Orbital elements
Apogee altitude
547.176 km
Perigee altitude
545.744 km
Semi-major axis
6,924.597 km
Eccentricity
0.0001
Inclination
97.6049°
RAAN
57.0275°
Arg. of periapsis
96.5432°
True anomaly
263.57953°
Mean anomaly
263.5913°
Eccentric anomaly
263.58541°
Mean motion
3.76662 °/min
Orbital period
95.58 mins
BSTAR
0.00042471
Loading maneuver chart data...
Computing Atmospheric mass density...
Loading historical data...
Loading historical data...
Loading historical data...
Loading historical data...
Loading historical data...
Loading historical data...
Loading historical data...

Documentation

Showing up to 5 results
|